Simultaneous Nadir Overpasses (SNOs) Predictions

Prediction of SNOs over PacNW region [( 10.00, 139.50) to ( 22.70, 165.60)] between AQUA and NPP Satellites:

Table of predicted SNOs over PacNW region for the next 30.0 days since TLE Epoch: 7/2/2016
Index Date (AQUA) Time (AQUA) AQUA Lat,Lon Date (NPP) Time (NPP) NPP Lat,Lon Distance(km) Time Diff (sec)
1 07/03/2016 02:42:05 22.65, 159.89 07/03/2016 02:38:36 26.69, 157.42 513.73 209
2 07/08/2016 15:09:40 22.60, 159.84 07/08/2016 15:11:56 23.16, 157.23 274.79 136
3 07/11/2016 03:31:30 22.68, 147.53 07/11/2016 03:28:05 22.35, 145.85 176.07 205
4 07/16/2016 15:59:03 22.61, 147.49 07/16/2016 16:02:31 23.58, 144.65 309.51 208
5 07/19/2016 02:41:59 22.64, 159.90 07/19/2016 02:38:30 26.62, 157.45 507.15 209
6 07/24/2016 15:09:32 22.61, 159.85 07/24/2016 15:11:50 23.19, 157.24 275.12 138
7 07/27/2016 03:31:15 22.31, 147.63 07/27/2016 03:27:52 21.94, 145.96 176.68 203




NCC Satellite Simultaneous Nadir Overpasses (SNOs) Prediction Service
